[[{"header":{"parameterUnit":"m.s-1","parameterCategory":1,"la1":30.2991,"la2":30.254,"lo1":-89.0895,"lo2":-89.0444,"dy":0.0017,"dx":0.0017,"nx":28,"ny":28,"refTime":"2024-07-15T03:00:00:Z","depth":0,"parameterNumber":2,"parameterNumberName":"U-component_of_WINDS"},"data":[0,0,0,0,0,0,0,0,0,0,0,0,0,0,0,0,0,0,0,0,0,0,0,0,0,0,0,0,0,0,0,0,0,0,0,0,0,0,0,0,0,0,0,0,0,0,0,0,0,0,0,0,0,0,0,0,0,0,0.3457,0.3457,0,0.3469,0.3469,0.3469,0.3453,0.3452,0.3452,0.3451,0.3464,0.3465,0.3466,0,0,0,0,0,0,0,0,0,0,0,0,0,0.3419,0.3419,0.3457,0.3457,0.3457,0.3469,0.3469,0.3469,0.3453,0.3452,0.3452,0.3451,0.3464,0.3465,0.3466,0,0,0,0,0,0,0,0,0,0,0,0,0,0.3433,0.342,0.3457,0.345,0.345,0.3469,0.3469,0.3469,0.3453,0.3452,0.3451,0.345,0.3464,0.3465,0.3466,0.3493,0,0,0.3471,0.3471,0,0,0,0,0,0,0,0,0.3433,0.3435,0.3451,0.3451,0.345,0.3458,0.3461,0.3477,0.3453,0.3452,0.3451,0.345,0.3463,0.3465,0.3469,0.3493,0.3494,0.3471,0.3472,0.3472,0.3473,0,0,0,0,0,0,0,0.3432,0.3434,0.3462,0.3451,0.3451,0.3447,0.3448,0.3464,0.3462,0.3452,0.3451,0.3452,0.3463,0.3468,0.3469,0.3494,0.3471,0.3472,0.3473,0.3473,0.354,0.3541,0,0,0,0,0,0,0.3431,0.3433,0.3461,0.3462,0.3439,0.3448,0.3449,0.3457,0.3462,0.3462,0.3453,0.3452,0.3466,0.3468,0.347,0.3499,0.3472,0.3473,0.3474,0.3539,0.354,0.3541,0,0,0,0,0,0,0.3431,0.3434,0.3461,0.3447,0.345,0.345,0.3458,0.3457,0.3462,0.3463,0.3463,0.3458,0.3465,0.3468,0.3487,0.35,0.3474,0.3475,0.3538,0.3539,0.3541,0.356,0,0,0,0,0,0,0.343,0.3434,0.3444,0.3448,0.3451,0.3478,0.3459,0.3458,0.3464,0.3463,0.3468,0.3468,0.3465,0.3485,0.3488,0.3501,0.3476,0.3537,0.3539,0.354,0.3559,0.3562,0.3566,0,0,0,0,0,0.3428,0.3449,0.3444,0.3448,0.3464,0.3478,0.348,0.3476,0.3466,0.3475,0.3476,0.3468,0.3498,0.3487,0.3491,0.3504,0.3536,0.3538,0.354,0.3557,0.3562,0.3566,0,0,0,0,0,0,0.3447,0.3449,0.3444,0.3467,0.3473,0.3476,0.3488,0.3481,0.349,0.3488,0.3482,0.3484,0.3504,0.3506,0.3494,0.353,0.3515,0.3518,0.3527,0.3531,0.3535,0.3533,0.3478,0,0,0,0,0,0.3453,0.3465,0.3467,0.3487,0.349,0.3489,0.3495,0.3491,0.3497,0.3499,0.3501,0.3507,0.3518,0.3525,0.3535,0.356,0.356,0.3571,0.3574,0.3577,0.3579,0.3591,0.3596,0.3548,0.3548,0.3548,0,0,0.3467,0.347,0.3478,0.3491,0.3495,0.3507,0.3491,0.3504,0.3513,0.3501,0.3519,0.3521,0.3527,0.3549,0.3558,0.3551,0.3593,0.358,0.3582,0.3583,0.3594,0.3598,0.3602,0.355,0.3549,0.3549,0,0,0.3498,0.3502,0.3519,0.3523,0.3529,0.3528,0.3532,0.3536,0.3537,0.3555,0.3546,0.3556,0.3575,0.358,0.3585,0.3618,0.361,0.3621,0.3639,0.3651,0.3654,0.3658,0.3668,0.3672,0.3624,0.3624,0.3624,0,0.3514,0.3532,0.3528,0.3542,0.3547,0.3537,0.3554,0.3558,0.3567,0.3571,0.3563,0.3587,0.359,0.3612,0.362,0.3625,0.3629,0.362,0.3654,0.3657,0.366,0.367,0.3674,0.3625,0.3625,0.3625,0.3625,0,0.3551,0.3564,0.3576,0.3585,0.3592,0.3607,0.3605,0.3613,0.3609,0.3609,0.3627,0.3631,0.3641,0.3647,0.3643,0.3668,0.3663,0.3655,0.364,0.3666,0.3675,0.3679,0.3627,0.3626,0.3626,0.3626,0,0,0.3592,0.3599,0.3603,0.3607,0.3613,0.3623,0.3638,0.3647,0.3654,0.3661,0.3672,0.3689,0.3681,0.3686,0.3683,0.3694,0.3718,0.3684,0.3684,0.3689,0.3745,0.375,0.3754,0.3714,0.3715,0.3715,0.3744,0,0.3622,0.3647,0.3644,0.3668,0.3679,0.367,0.3683,0.3688,0.3688,0.3698,0.3698,0.3709,0.3699,0.3702,0.3712,0.3713,0.3729,0.3711,0.3724,0.3724,0.3721,0.3759,0.3764,0.3791,0.3747,0.3748,0.3748,0,0.366,0.3667,0.3692,0.3696,0.3701,0.3712,0.3721,0.373,0.3736,0.3736,0.3742,0.3737,0.3751,0.3738,0.3757,0.3745,0.3751,0.3752,0.3753,0.3752,0.3737,0.3758,0.3799,0.3803,0.3754,0.3754,0.3753,0,0.3685,0.3702,0.3719,0.3723,0.3728,0.3736,0.3739,0.3744,0.375,0.3758,0.3761,0.3771,0.3776,0.3784,0.3781,0.3772,0.3801,0.3788,0.38,0.38,0.3805,0.3805,0.3846,0.3812,0.3812,0.3812,0.3812,0,0.3717,0.3732,0.373,0.3741,0.3757,0.3754,0.3771,0.3772,0.3777,0.3787,0.3781,0.379,0.3788,0.3797,0.3796,0.3812,0.3814,0.3814,0.3813,0.3814,0.3813,0.3816,0.3813,0.3813,0.3813,0.3812,0.3812,0,0.3748,0.3747,0.3765,0.3769,0.377,0.3782,0.3786,0.3795,0.3795,0.3808,0.3811,0.3812,0.3823,0.3822,0.3834,0.3833,0.3852,0.385,0.385,0.3849,0.3861,0.386,0.3904,0.391,0.3873,0.3873,0.3874,0,0.3767,0.3779,0.3784,0.379,0.3794,0.3804,0.381,0.3808,0.3814,0.3822,0.383,0.3841,0.3848,0.3867,0.3868,0.3877,0.3874,0.389,0.3876,0.3876,0.3873,0.3871,0.3872,0.3892,0.3892,0.3892,0.3893,0,0.3802,0.3801,0.381,0.3819,0.3826,0.3833,0.3839,0.3845,0.3843,0.3851,0.3862,0.3868,0.3881,0.3891,0.39,0.3903,0.3897,0.3897,0.39,0.39,0.3899,0.3898,0.3856,0.3896,0.3895,0.3895,0.3895,0.3895,0.3826,0.3836,0.3841,0.3851,0.3855,0.3862,0.387,0.3872,0.3881,0.3891,0.3889,0.3901,0.3907,0.3918,0.3922,0.3931,0.3926,0.3931,0.3932,0.3933,0.3933,0.3899,0.3933,0.3933,0.3933,0.3933,0.3933,0,0.3859,0.3862,0.3871,0.388,0.3888,0.3883,0.389,0.3896,0.3907,0.3913,0.3921,0.3933,0.3943,0.3946,0.3955,0.3962,0.396,0.3965,0.3963,0.3964,0.3939,0.3934,0.3966,0.3966,0.3966,0.3966,0.3966,0.3966,0.3877,0.3892,0.3892,0.3909,0.3912,0.3924,0.3928,0.3934,0.3938,0.3952,0.396,0.3962,0.3966,0.3976,0.3985,0.3985,0.3988,0.3994,0.3993,0.3969,0.3966,0.3963,0.3958,0.3995,0.3995,0.4018,0.4018,0.4018]},{"header":{"parameterUnit":"m.s-1","parameterCategory":1,"la1":30.2991,"la2":30.254,"lo1":-89.0895,"lo2":-89.0444,"dy":0.0017,"dx":0.0017,"nx":28,"ny":28,"refTime":"2024-07-15T03:00:00:Z","depth":0,"parameterNumber":3,"parameterNumberName":"V-component_of_WINDS"},"data":[0,0,0,0,0,0,0,0,0,0,0,0,0,0,0,0,0,0,0,0,0,0,0,0,0,0,0,0,0,0,0,0,0,0,0,0,0,0,0,0,0,0,0,0,0,0,0,0,0,0,0,0,0,0,0,0,0,0,3.8059,3.8058,0,3.7978,3.7978,3.7977,3.7904,3.7903,3.7902,3.7901,3.7814,3.7812,3.7811,0,0,0,0,0,0,0,0,0,0,0,0,0,3.8144,3.8143,3.8059,3.8058,3.8057,3.7979,3.7977,3.7976,3.7904,3.7903,3.7902,3.7901,3.7814,3.7812,3.7811,0,0,0,0,0,0,0,0,0,0,0,0,0,3.809,3.8143,3.8059,3.8011,3.8006,3.7979,3.7977,3.7976,3.7904,3.7903,3.7902,3.7901,3.7815,3.7813,3.781,3.7822,0,0,3.7803,3.7802,0,0,0,0,0,0,0,0,3.8093,3.8087,3.8019,3.8015,3.8009,3.795,3.7975,3.7924,3.7905,3.7943,3.7901,3.79,3.786,3.7854,3.7841,3.7818,3.7814,3.7803,3.7802,3.7801,3.78,0,0,0,0,0,0,0,3.8097,3.809,3.8027,3.8018,3.8012,3.7992,3.7983,3.7965,3.7909,3.7939,3.7934,3.7926,3.7857,3.7844,3.7839,3.7812,3.7803,3.7801,3.78,3.7799,3.7792,3.7794,0,0,0,0,0,0,3.8109,3.8093,3.8029,3.8024,3.8049,3.7992,3.7982,3.797,3.7909,3.7899,3.7927,3.7923,3.7848,3.7841,3.7835,3.7843,3.7801,3.7799,3.7797,3.7791,3.7793,3.7794,0,0,0,0,0,0,3.8111,3.8104,3.8032,3.8057,3.8047,3.7992,3.7979,3.7969,3.7956,3.79,3.7889,3.7924,3.7847,3.7839,3.7826,3.7839,3.7797,3.7795,3.779,3.7792,3.7793,3.786,0,0,0,0,0,0,3.8114,3.8105,3.811,3.8058,3.8046,3.8026,3.798,3.7969,3.7953,3.7947,3.7895,3.7885,3.7845,3.783,3.7823,3.7835,3.7794,3.7788,3.7791,3.7793,3.7856,3.7864,3.787,0,0,0,0,0,3.8117,3.8131,3.811,3.8103,3.8051,3.8027,3.802,3.7976,3.7955,3.7958,3.7922,3.7886,3.7839,3.7829,3.7821,3.7833,3.7787,3.779,3.7793,3.7853,3.7862,3.787,0,0,0,0,0,0,3.8183,3.8123,3.81,3.8098,3.8068,3.8015,3.8018,3.7987,3.7961,3.7956,3.7901,3.789,3.7883,3.7857,3.7846,3.784,3.7808,3.781,3.7857,3.7865,3.7872,3.7878,3.7792,0,0,0,0,0,3.8198,3.8185,3.8133,3.8136,3.8122,3.8073,3.8061,3.803,3.7996,3.7983,3.7946,3.7913,3.789,3.7877,3.7853,3.7853,3.7839,3.7857,3.7864,3.787,3.7871,3.7867,3.7874,3.7803,3.7803,3.7803,0,0,3.8227,3.8193,3.8188,3.8148,3.8122,3.8108,3.8063,3.805,3.8039,3.798,3.7966,3.7938,3.7897,3.7891,3.7886,3.7868,3.7888,3.7874,3.7879,3.7876,3.7871,3.7878,3.7884,3.7805,3.7805,3.7804,0,0,3.8274,3.8248,3.8247,3.8222,3.8183,3.815,3.815,3.8102,3.8081,3.8067,3.8022,3.8007,3.797,3.7943,3.7924,3.7962,3.7927,3.7956,3.7991,3.7988,3.7994,3.7999,3.801,3.8015,3.7957,3.7957,3.7958,0,3.8315,3.8294,3.825,3.824,3.8223,3.8172,3.817,3.8147,3.8102,3.809,3.8072,3.8025,3.7994,3.798,3.7989,3.7976,3.7973,3.796,3.7997,3.8001,3.8005,3.8015,3.802,3.7961,3.7961,3.796,3.796,0,3.8345,3.8331,3.8335,3.8295,3.8278,3.8273,3.8226,3.8215,3.8186,3.8154,3.8139,3.8101,3.8068,3.8063,3.8034,3.8044,3.8034,3.8008,3.7975,3.8016,3.8025,3.8028,3.7966,3.7965,3.7964,3.7963,0,0,3.8429,3.8366,3.8367,3.8348,3.8302,3.829,3.8281,3.8251,3.8241,3.8213,3.8202,3.8173,3.8148,3.8127,3.8094,3.8092,3.8122,3.8065,3.8063,3.8075,3.8129,3.8148,3.8154,3.81,3.8101,3.8101,3.8132,0,3.8466,3.8449,3.8409,3.8404,3.8389,3.8341,3.8334,3.8304,3.8275,3.8257,3.8224,3.8203,3.8173,3.816,3.8156,3.812,3.8132,3.8117,3.8088,3.8087,3.8097,3.8158,3.8178,3.8209,3.8135,3.8136,3.8136,0,3.8506,3.8482,3.8476,3.843,3.8423,3.8417,3.8386,3.8371,3.8335,3.8314,3.8291,3.8256,3.8242,3.8214,3.8193,3.8184,3.817,3.815,3.815,3.8144,3.8113,3.8151,3.8218,3.8222,3.8141,3.8141,3.8141,0,3.8565,3.8531,3.8523,3.8508,3.8456,3.8452,3.843,3.8394,3.8378,3.8351,3.834,3.8311,3.8294,3.8272,3.8229,3.8212,3.8212,3.818,3.8192,3.8193,3.8192,3.8192,3.8255,3.8187,3.8187,3.8187,3.8187,0,3.8609,3.8607,3.8549,3.8543,3.8539,3.8493,3.8489,3.8462,3.843,3.8417,3.8374,3.8363,3.8308,3.8289,3.8255,3.8242,3.8235,3.8216,3.8207,3.8219,3.8221,3.8207,3.8203,3.8188,3.8188,3.8187,3.8187,0,3.8674,3.8635,3.8622,3.8575,3.8563,3.8561,3.8519,3.8511,3.848,3.8464,3.8458,3.8409,3.8385,3.8341,3.8303,3.8281,3.8274,3.8259,3.8286,3.828,3.8294,3.8292,3.8347,3.8352,3.8284,3.8284,3.8285,0,3.8703,3.87,3.8653,3.8642,3.8622,3.8605,3.859,3.8545,3.853,3.849,3.8487,3.846,3.8436,3.84,3.8359,3.833,3.8313,3.8334,3.8308,3.832,3.8311,3.8311,3.8309,3.8339,3.834,3.8341,3.8342,0,3.8759,3.874,3.8721,3.8695,3.8678,3.8654,3.8629,3.8622,3.8571,3.8556,3.8532,3.8514,3.8477,3.845,3.8416,3.839,3.8357,3.8351,3.8352,3.8363,3.8378,3.8368,3.83,3.8349,3.8349,3.8348,3.8348,3.8347,3.8805,3.88,3.8766,3.8746,3.8722,3.8699,3.8689,3.8658,3.8638,3.8606,3.8581,3.8559,3.8522,3.8473,3.845,3.8431,3.8415,3.8417,3.8416,3.8417,3.8421,3.8384,3.8424,3.8424,3.8424,3.8424,3.8423,0,3.8857,3.8833,3.8815,3.8781,3.8765,3.8738,3.8708,3.8696,3.8677,3.8648,3.8626,3.8598,3.8572,3.853,3.85,3.8493,3.8476,3.8486,3.8485,3.8479,3.8438,3.8439,3.85,3.85,3.85,3.85,3.85,3.85,3.8882,3.8872,3.8849,3.8827,3.8802,3.8782,3.8767,3.8745,3.8721,3.8693,3.8672,3.8646,3.8611,3.8578,3.8552,3.8541,3.8531,3.8545,3.8528,3.8489,3.8482,3.8475,3.8476,3.8544,3.8544,3.857,3.8571,3.8571]}]]